SCP
0 -0 0 -0 -0 -0 -0 -0 0 -0 -0 0 0 -0 -0 -0 -0 -0 -0 -0 -0 -0 -0 -0 -0 -0 -0 -0 -0 -0 -0 -0 -0 -0 -0 -0 -0 -0 -0 -0 -0 -0 -0 -0 -0 -0 -0 -0 -0
0 0 0 -0 0 0 -0 -0 0 0 0 -0 -0 0 -0 -0 -0 0 0 -0 -0 -0 0 0 -0 -0 -0 -0 -0 -0 -0 -0 -0 -0 -0 -0 -0 -0 -0 -0 -0 -0 -0 -0 -0 -0 -0 -0 -0
0 0 -0 -0 0 0 0 -0 0 0 0 -0 0 0 0 0 -0 0 -0 0 -0 -0 0 -0 -0 -0 -0 -0 -0 -0 -0 -0 -0 -0 0 0 0 0 -0 -0 -0 -0 -0 -0 -0 -0 -0 -0 -0
0 0 0 -0 -0 0 -0 -0 -0 -0 -0 -0 0 -0 0 -0 -0 -0 -0 -0 -0 -0 0 -0 -0 -0 -0 -0 -0 -0 -0 -0 -0 0 0 -0 -0 -0 -0 -0 -0 -0 0 0 0 0 -0 -0 -0
0 0 0 0 -0 -0 0 0 0 0 0 -0 -0 -0 0 0 0 -0 -0 -0 -0 -0 0 0 -0 -0 -0 -0 -0 -0 -0 -0 -0 0 0 -0 -0 -0 -0 -0 -0 -0 -0 -0 -0 -0 -0 -0 -0
0 0 0 0 -0 -0 0 0 -0 0 0 -0 -0 0 -0 -0 0 -0 -0 0 -0 -0 0 0 0 -0 -0 -0 -0 -0 -0 -0 -0 0 -0 -0 -0 -0 -0 -0 -0 -0 -0 -0 -0 -0 -0 -0 -0
0 0 0 0 0 0 0 0 0 0 0 -0 0 -0 -0 0 0 -0 -0 -0 0 0 -0 -0 0 0 -0 -0 -0 -0 -0 -0 -0 0 -0 -0 -0 -0 -0 -0 -0 -0 -0 -0 -0 -0 -0 -0 -0
0 0 0 0 0 0 0 0 -0 -0 -0 0 -0 -0 -0 -0 -0 0 0 -0 0 0 0 0 0 0 0 0 -0 0 0 0 -0 -0 -0 -0 -0 -0 -0 -0 -0 -0 -0 -0 -0 -0 -0 -0 -0
0 0 0 0 0 0 0 0 -0 -0 0 0 -0 -0 0 -0 0 0 0 0 0 -0 0 0 0 0 0 0 0 0 0 0 0 0 -0 -0 -0 -0 -0 -0 -0 -0 -0 -0 -0 -0 -0 -0 -0
0 0 0 0 -0 -0 0 0 -0 -0 0 0 0 0 -0 0 0 0 0 0 0 0 0 -0 -0 -0 -0 0 0 0 0 0 0 0 0 0 0 -0 -0 -0 -0 -0 -0 -0 -0 -0 -0 -0 -0
0 0 0 0 -0 -0 -0 -0 -0 0 0 -0 0 -0 0 0 -0 -0 -0 -0 -0 0 0 0 0 0 0 0 0 0 0 0 0 0 0 0 0 0 0 0 0 0 -0 0 -0 -0 -0 -0 -0
0 0 0 0 -0 -0 -0 0 0 0 0 0 0 0 0 0 0 0 -0 -0 -0 0 0 0 0 0 0 0 0 0 0 0 0 0 0 0 0 0 0 0 0 0 0 -0 -0 -0 -0 -0 -0
0 0 0 0 0 0 0 0 0 0 0 0 -0 0 0 0 0 0 0 0 -0 -0 -0 -0 0 0 0 0 0 0 0 0 0 0 0 0 0 0 0 0 0 0 0 0 0 0 0 -0 -0
0 0 0 0 0 0 0 0 0 0 0 0 0 0 0 -0 -0 -0 -0 0 0 0 0 0 0 0 0 0 0 0 0 0 0 0 0 0 0 0 0 0 0 -0 0 0 0 0 0 0 -0
0 0 0 0 0 0 0 0 0 0 0 0 0 0 -0 -0 -0 -0 -0 0 0 0 0 0 0 0 0 0 0 0 0 0 0 0 0 0 0 0 0 0 0 0 0 0 0 0 0 0 0
0 0 0 0 0 0 0 0 0 0 0 0 0 0 0 0 -0 0 0 0 0 0 0 0 0 0 0 0 0 0 0 0 0 0 0 0 0 0 0 0 0 0 0 0 0 0 0 0 0
0 0 0 0 0 0 0 0 0 0 0 0 0 0 0 0 -0 0 0 0 0 0 0 0 0 0 0 0 0 0 0 1 1 0 0 0 0 0 0 0 0 0 0 0 0 0 0 0 0
0 0 0 0 0 0 0 0 0 0 0 0 0 0 0 0 -0 0 0 0 0 0 0 0 0 0 0 0 0 0 0 0 0 0 0 0 0 1 0 0 0 0 0 0 0 0 0 0 0
0 0 0 0 0 0 0 0 0 0 0 0 0 0 0 0 0 0 0 0 0 0 0 0 0 0 0 0 0 0 0 0 0 0 0 0 0 0 0 0 0 0 1 0 0 0 0 0 0
0 0 0 0 0 0 0 0 0 0 0 0 0 0 0 0 0 0 0 0 0 0 0 0 0 0 0 0 0 0 0 0 0 0 0 0 0 0 0 0 0 0 0 0 0 0 0 0 0
0 0 0 0 0 0 0 0 0 0 0 0 0 0 0 0 0 0 0 0 0 0 0 0 0 0 0 0 0 0 0 0 0 0 0 0 0 0 0 0 0 0 0 0 0 0 0 0 0
0 0 0 0 0 0 0 0 0 0 0 0 0 0 0 0 0 0 0 0 0 0 0 0 0 0 0 0 0 0 0 0 0 0 0 0 0 0 0 0 0 0 0 0 0 0 0 0 0
0 0 0 0 0 0 0 0 0 0 0 0 0 0 0 0 0 0 0 0 0 0 0 0 0 0 0 0 0 0 0 0 0 0 0 0 0 0 0 0 0 0 0 0 0 0 0 0 0
0 0 0 0 0 0 0 0 0 0 0 0 0 0 0 0 0 -0 -0 -0 -0 -0 0 0 0 0 0 0 0 0 0 0 0 0 0 0 0 0 0 0 0 0 0 0 0 0 0 0 0
0 0 0 0 0 0 0 0 0 0 0 0 0 0 -0 -0 -0 -0 -0 -0 -0 -0 0 0 -0 0 0 0 0 0 0 0 0 0 0 0 0 0 0 0 0 0 0 0 0 0 0 0 0
0 0 0 0 0 0 0 0 0 0 0 0 0 0 0 -0 -0 -0 -0 -0 -0 -0 0 0 0 0 0 0 0 0 0 0 0 0 0 0 0 0 0 0 0 0 0 0 0 0 0 0 0
0 0 0 0 0 0 0 0 0 0 0 0 0 0 -0 -0 -0 -0 -0 -0 -0 -0 0 0 0 0 0 0 0 0 0 0 0 0 0 -0 0 0 0 0 0 0 0 0 0 0 0 0 0
0 0 0 0 0 0 0 0 0 0 0 0 -0 -0 -0 -0 -0 -0 0 0 0 0 0 0 0 0 0 0 0 0 0 0 -0 -0 -0 0 0 0 0 0 0 0 0 0 0 0 -0 0 0
0 0 0 0 0 0 0 0 0 0 0 0 0 -0 -0 0 0 0 0 0 0 0 0 0 0 0 0 0 0 0 0 0 -0 -0 -0 -0 -0 0 0 0 0 0 0 0 0 0 0 0 0
0 0 0 0 0 0 0 0 0 0 0 0 0 0 -0 0 0 0 0 0 0 0 0 0 0 0 0 0 0 0 0 0 0 0 0 0 0 0 0 0 0 0 0 0 0 0 0 0 0
Wind_Speed_500mb
14 15 11 4 7 10 6 12 6 4 5 3 11 9 5 7 4 5 36 56 54 52 50 44 39 32 27 22 20 17 16 17 17 16 16 16 14 13 12 12 14 19 23 25 27 28 30 30 30
10 7 1 5 9 5 9 10 13 11 8 15 6 12 7 4 6 27 58 54 54 53 50 44 38 31 28 24 22 21 21 20 19 17 15 14 13 12 12 12 15 19 21 21 22 22 23 24 20
2 4 3 8 7 8 8 10 16 13 17 9 7 7 6 6 14 54 54 54 58 51 47 41 35 30 27 25 23 22 21 20 20 19 17 14 12 11 11 12 15 17 17 17 17 19 22 19 13
4 7 8 7 7 12 11 11 12 2 6 11 2 8 9 5 45 37 52 53 57 50 44 39 32 28 25 23 21 19 18 17 15 13 11 9 8 8 7 9 13 15 16 16 16 17 15 10 8
4 3 7 4 7 10 10 17 19 8 13 8 6 3 9 25 14 41 46 51 52 49 44 38 32 29 26 23 21 19 17 16 13 10 8 6 5 4 4 5 9 14 17 18 19 20 18 14 9
4 5 8 4 9 10 11 17 13 15 17 15 14 11 6 5 24 40 47 52 49 44 43 38 33 29 26 23 20 18 16 15 13 12 9 6 4 2 2 4 6 10 16 21 23 24 25 23 20
10 8 5 4 8 11 8 10 11 13 16 8 20 10 6 14 32 43 53 53 48 44 40 36 32 30 27 23 19 16 14 12 10 9 8 7 4 1 1 2 4 6 10 16 21 24 24 22 20
3 9 2 7 7 5 9 6 13 9 9 18 9 9 10 27 38 47 53 48 46 42 38 37 33 30 27 24 21 17 14 11 10 8 6 4 1 1 2 2 3 5 6 9 14 19 21 22 22
3 9 4 10 11 11 11 8 13 14 24 18 5 9 26 42 50 48 48 46 44 40 35 31 30 30 26 24 22 19 17 15 13 10 7 5 4 4 4 6 8 10 8 7 7 11 15 17 19
9 7 9 6 6 4 8 13 10 10 19 17 38 41 41 51 50 44 44 43 38 35 35 34 32 30 28 26 24 20 18 16 14 11 10 8 8 8 7 8 9 9 10 9 5 4 6 9 9
6 8 7 5 4 3 3 16 12 8 11 4 44 51 46 41 40 37 35 38 37 34 31 27 26 28 27 26 25 24 23 19 16 14 14 13 12 13 12 12 12 8 6 5 4 3 1 3 6
4 2 8 2 7 6 9 16 18 27 8 24 46 47 42 34 27 24 26 29 32 28 23 22 22 26 29 31 30 29 28 25 23 19 19 20 21 20 17 15 13 11 9 5 4 5 8 11 16
2 5 5 4 6 15 26 21 21 24 30 39 45 42 37 30 27 27 27 24 25 29 29 30 29 27 29 31 31 32 29 27 26 24 25 27 27 27 28 24 19 16 14 14 15 17 20 24 27
7 9 9 3 6 7 27 15 9 12 34 47 49 45 37 28 23 19 22 29 38 33 33 33 31 28 31 31 35 32 30 28 26 24 26 30 31 30 29 28 28 22 23 22 22 24 28 30 34
4 6 12 3 3 9 34 15 12 19 31 48 40 37 30 24 20 15 12 13 24 30 31 31 21 24 29 32 36 32 34 29 29 28 32 35 35 34 32 28 29 24 27 29 33 32 35 37 38
9 11 5 8 8 5 5 5 11 13 23 34 33 29 27 22 15 12 11 8 8 14 20 23 27 25 26 30 34 35 36 39 41 42 45 46 42 40 39 39 40 35 28 36 37 40 41 42 42
14 2 4 13 15 4 9 11 17 14 19 26 27 28 25 25 20 14 10 6 3 6 14 18 21 24 27 29 28 31 37 40 43 44 44 41 43 44 43 45 41 44 47 42 42 46 44 42 44
3 3 3 6 13 21 28 17 20 24 25 19 22 25 23 22 21 18 16 15 14 11 8 7 10 13 16 19 19 22 26 32 33 33 36 39 41 45 51 45 42 43 45 43 46 50 45 47 47
7 7 6 6 7 16 13 18 15 18 19 15 17 18 20 23 25 23 22 23 23 20 18 21 19 19 19 18 17 18 21 24 28 31 33 34 38 44 45 50 48 49 46 47 50 46 48 52 56
8 6 3 3 14 14 11 17 12 17 7 5 4 8 16 18 18 19 19 20 24 25 23 24 23 21 22 20 16 15 18 22 27 29 31 33 33 31 28 27 31 43 57 44 46 47 36 46 54
6 10 3 6 10 19 13 7 1 6 7 2 1 3 8 12 15 16 17 18 19 22 26 28 29 29 30 28 24 22 17 14 14 18 19 21 24 15 13 15 22 30 37 38 47 61 56 67 54
6 4 5 6 7 7 6 7 8 7 4 3 8 10 8 11 15 16 17 19 22 27 28 29 31 32 31 28 25 23 22 24 24 25 23 20 18 13 14 16 22 32 45 57 63 62 61 66 58
8 6 5 6 9 5 3 7 7 7 11 12 20 18 16 14 15 14 14 14 18 21 24 28 31 31 33 34 34 29 27 27 24 20 19 17 17 20 20 17 17 19 19 24 32 41 45 41 41
13 11 15 10 7 4 8 8 8 12 11 10 24 29 28 26 21 17 14 12 11 13 15 19 23 26 26 28 30 31 30 28 23 25 27 28 25 19 20 24 26 28 27 23 22 20 23 23 21
12 12 6 8 8 9 1 4 14 12 11 30 41 44 40 34 29 23 18 15 12 8 9 15 18 20 23 25 26 30 34 35 35 33 32 30 30 31 29 28 28 32 31 28 28 21 17 21 27
5 11 10 8 6 7 7 10 6 6 10 25 34 48 43 40 34 29 24 21 14 9 5 6 10 14 18 22 27 30 30 31 33 34 33 32 32 31 30 29 27 24 26 27 30 25 16 10 17
5 4 6 13 6 4 5 10 7 4 7 13 30 37 45 44 41 35 29 23 14 9 4 2 5 9 12 17 22 26 28 28 30 32 33 34 32 32 33 33 31 31 28 24 18 21 22 21 20
6 10 7 6 4 7 7 7 9 8 14 12 24 45 47 41 40 35 30 25 17 9 3 3 2 2 6 8 13 17 22 25 27 31 35 39 40 40 40 42 41 37 33 31 26 22 22 26 31
5 3 11 8 8 9 2 10 11 18 24 26 40 54 50 46 44 39 34 28 18 13 11 9 8 8 8 3 3 8 14 20 22 25 29 33 38 40 42 45 48 48 47 38 31 27 24 23 23
1 6 10 9 8 2 7 11 7 13 21 38 51 56 51 48 43 39 36 32 29 24 19 13 10 12 13 9 5 2 8 12 16 20 25 28 32 36 40 44 49 56 59 47 36 33 31 32 31
Wind_Direction_500mb
305 325 329 357 49 55 287 280 297 356 10 341 112 80 172 110 163 221 145 158 162 159 158 157 156 150 149 150 149 152 157 159 154 151 146 141 137 132 126 118 118 124 125 122 116 113 111 110 110
320 325 70 83 85 55 271 273 254 218 136 38 77 22 29 62 95 139 147 156 163 160 158 159 158 151 152 154 155 150 143 144 153 157 157 155 152 148 140 129 128 133 133 129 124 124 122 118 117
117 181 167 94 110 178 219 226 249 283 260 333 40 54 17 17 125 140 154 160 164 163 159 159 159 154 158 164 166 163 155 149 146 145 142 140 138 140 150 148 145 147 148 144 138 138 132 124 124
183 150 68 91 229 253 216 228 234 264 295 202 78 51 49 73 133 149 157 164 166 163 160 161 162 158 162 170 172 169 163 158 154 149 145 137 136 138 144 160 168 170 172 174 172 170 166 162 169
172 103 58 352 259 263 262 260 228 151 146 157 171 65 76 134 135 155 161 168 170 166 162 164 165 163 166 172 171 168 163 159 158 157 156 155 154 160 169 183 192 197 199 200 198 199 204 206 224
112 90 59 304 268 278 280 288 198 148 128 118 134 103 124 194 153 161 168 170 173 169 165 169 170 170 171 175 172 168 165 163 161 161 159 159 164 180 208 224 225 222 217 215 216 219 225 232 239
122 83 188 230 269 303 313 56 125 133 127 100 139 103 156 161 165 164 168 170 174 173 170 174 177 176 177 180 178 171 167 166 163 166 164 160 153 150 332 310 284 261 246 234 227 226 228 232 233
93 93 51 238 275 61 332 84 103 119 74 95 104 159 182 165 161 160 165 173 175 177 179 181 184 184 184 185 186 184 180 180 182 195 205 204 206 336 339 338 336 320 289 259 240 232 232 232 232
80 60 6 325 360 317 28 90 65 85 91 56 61 151 156 148 151 158 169 178 181 182 188 191 195 194 192 194 198 197 194 197 202 208 229 260 289 304 318 342 2 7 358 327 280 249 239 236 235
93 97 228 227 294 5 35 74 52 76 72 67 95 121 144 151 156 164 178 183 185 190 195 201 206 207 209 212 215 218 220 221 225 229 241 261 285 296 317 340 343 355 9 14 355 295 258 246 242
159 176 194 298 148 173 49 72 61 85 35 8 143 142 150 155 165 172 176 189 190 197 207 214 218 219 222 227 229 234 239 242 249 257 265 266 274 281 289 310 312 317 340 21 54 91 91 272 272
10 304 244 343 178 126 116 101 61 64 69 130 143 149 152 157 167 185 185 188 191 201 215 228 237 239 238 237 237 243 247 257 262 267 277 285 289 289 287 287 296 285 267 247 237 233 257 276 284
72 323 188 297 117 117 106 78 111 77 118 145 148 153 154 165 182 194 200 202 204 213 220 228 237 246 250 256 258 261 267 273 282 286 286 290 288 290 289 282 277 269 264 262 260 271 277 281 287
308 311 355 345 77 147 105 139 50 112 137 135 141 139 143 151 160 182 203 211 218 222 234 241 246 246 250 262 263 263 273 280 284 277 284 290 289 281 279 280 276 260 253 258 269 277 282 285 289
1 25 354 328 295 118 115 37 42 128 139 131 128 132 133 123 128 139 139 188 215 227 240 246 255 251 256 265 269 270 274 273 278 282 284 285 286 278 273 271 270 268 260 262 267 271 276 278 283
54 49 56 299 357 21 125 135 94 114 134 118 128 125 127 118 114 107 113 140 186 225 248 263 271 264 266 265 258 257 265 270 272 270 271 273 275 275 271 274 274 272 264 266 265 268 272 280 289
13 113 360 324 20 263 52 102 77 112 122 105 113 122 119 114 111 106 112 103 91 235 253 260 267 259 251 254 257 256 259 262 269 274 277 279 279 278 279 276 279 273 273 263 268 268 279 283 282
213 66 265 28 350 56 85 95 59 74 111 95 101 108 113 106 90 84 82 74 64 53 36 332 308 298 290 272 267 265 260 264 270 271 276 281 282 283 281 280 280 281 280 277 270 270 271 279 285
147 113 101 9 339 71 53 88 54 74 89 74 81 83 90 93 85 78 67 58 54 50 38 18 341 332 311 298 276 274 270 277 289 291 294 294 290 287 291 285 278 274 273 277 276 281 285 285 285
92 119 17 128 21 84 70 80 54 40 33 10 46 82 86 87 88 82 73 57 36 25 24 29 28 17 16 19 17 357 338 325 319 320 317 313 310 310 304 302 292 279 281 273 281 266 264 283 281
40 122 88 98 78 49 111 19 330 33 70 63 136 112 98 85 75 67 55 47 45 48 45 38 34 32 34 35 30 23 11 2 352 350 341 339 332 325 306 298 293 281 276 273 257 268 266 269 269
117 190 134 116 88 192 163 259 271 210 253 250 208 192 164 123 109 98 87 76 66 55 44 33 25 21 24 25 19 19 24 29 24 10 3 356 338 317 301 279 268 259 256 261 268 260 260 262 270
191 113 64 38 74 74 323 90 272 138 236 222 229 210 191 177 161 138 114 87 65 50 34 23 17 14 21 25 35 39 38 41 35 22 10 5 354 347 336 321 314 301 303 300 294 285 278 276 275
139 79 46 51 70 27 284 121 263 198 212 170 215 214 207 197 183 168 144 121 91 61 40 24 18 17 23 24 25 31 36 40 31 28 25 23 19 8 348 344 335 329 328 323 310 299 299 291 269
73 61 356 355 10 221 56 54 247 238 224 176 195 203 204 200 195 187 174 158 146 114 57 33 28 24 30 31 41 44 40 37 37 34 27 19 14 14 15 10 1 357 351 337 329 308 284 278 252
74 141 149 217 207 259 324 250 252 239 227 198 197 192 196 202 200 197 187 181 170 150 102 47 40 41 55 56 56 51 41 31 30 31 28 25 21 13 7 2 359 356 357 355 347 328 332 353 297
175 73 156 104 34 68 253 297 316 89 107 165 188 195 204 204 204 203 199 194 187 180 160 88 56 57 73 72 50 41 43 44 41 37 33 30 26 20 11 360 351 351 354 349 343 342 2 14 16
122 147 71 13 219 250 297 270 240 228 217 206 211 216 217 215 214 210 210 208 204 201 215 249 279 134 124 85 52 53 44 42 40 37 38 40 37 32 27 21 11 357 346 345 344 346 323 308 303
43 42 55 119 140 177 228 263 222 207 202 207 217 222 224 222 223 219 218 215 215 224 232 246 244 203 191 189 64 50 45 35 27 21 20 22 22 21 22 23 20 12 4 346 332 331 326 325 326
88 157 139 133 223 160 144 271 256 240 220 213 225 228 232 237 238 231 225 224 225 229 234 251 258 232 216 234 200 50 13 13 10 1 355 358 359 1 2 3 5 4 1 350 334 325 325 327 324
Wind_Speed_850mb
14 15 11 4 7 10 6 12 6 4 5 3 11 9 5 7 4 5 36 56 54 52 50 44 39 32 27 22 20 17 16 17 17 16 16 16 14 13 12 12 14 19 23 25 27 28 30 30 30
10 7 1 5 9 5 9 10 13 11 8 15 6 12 7 4 6 27 58 54 54 53 50 44 38 31 28 24 22 21 21 20 19 17 15 14 13 12 12 12 15 19 21 21 22 22 23 24 20
2 4 3 8 7 8 8 10 16 13 17 9 7 7 6 6 14 54 54 54 58 51 47 41 35 30 27 25 23 22 21 20 20 19 17 14 12 11 11 12 15 17 17 17 17 19 22 19 13
4 7 8 7 7 12 11 11 12 2 6 11 2 8 9 5 45 37 52 53 57 50 44 39 32 28 25 23 21 19 18 17 15 13 11 9 8 8 7 9 13 15 16 16 16 17 15 10 8
4 3 7 4 7 10 10 17 19 8 13 8 6 3 9 25 14 41 46 51 52 49 44 38 32 29 26 23 21 19 17 16 13 10 8 6 5 4 4 5 9 14 17 18 19 20 18 14 9
4 5 8 4 9 10 11 17 13 15 17 15 14 11 6 5 24 40 47 52 49 44 43 38 33 29 26 23 20 18 16 15 13 12 9 6 4 2 2 4 6 10 16 21 23 24 25 23 20
10 8 5 4 8 11 8 10 11 13 16 8 20 10 6 14 32 43 53 53 48 44 40 36 32 30 27 23 19 16 14 12 10 9 8 7 4 1 1 2 4 6 10 16 21 24 24 22 20
3 9 2 7 7 5 9 6 13 9 9 18 9 9 10 27 38 47 53 48 46 42 38 37 33 30 27 24 21 17 14 11 10 8 6 4 1 1 2 2 3 5 6 9 14 19 21 22 22
3 9 4 10 11 11 11 8 13 14 24 18 5 9 26 42 50 48 48 46 44 40 35 31 30 30 26 24 22 19 17 15 13 10 7 5 4 4 4 6 8 10 8 7 7 11 15 17 19
9 7 9 6 6 4 8 13 10 10 19 17 38 41 41 51 50 44 44 43 38 35 35 34 32 30 28 26 24 20 18 16 14 11 10 8 8 8 7 8 9 9 10 9 5 4 6 9 9
6 8 7 5 4 3 3 16 12 8 11 4 44 51 46 41 40 37 35 38 37 34 31 27 26 28 27 26 25 24 23 19 16 14 14 13 12 13 12 12 12 8 6 5 4 3 1 3 6
4 2 8 2 7 6 9 16 18 27 8 24 46 47 42 34 27 24 26 29 32 28 23 22 22 26 29 31 30 29 28 25 23 19 19 20 21 20 17 15 13 11 9 5 4 5 8 11 16
2 5 5 4 6 15 26 21 21 24 30 39 45 42 37 30 27 27 27 24 25 29 29 30 29 27 29 31 31 32 29 27 26 24 25 27 27 27 28 24 19 16 14 14 15 17 20 24 27
7 9 9 3 6 7 27 15 9 12 34 47 49 45 37 28 23 19 22 29 38 33 33 33 31 28 31 31 35 32 30 28 26 24 26 30 31 30 29 28 28 22 23 22 22 24 28 30 34
4 6 12 3 3 9 34 15 12 19 31 48 40 37 30 24 20 15 12 13 24 30 31 31 21 24 29 32 36 32 34 29 29 28 32 35 35 34 32 28 29 24 27 29 33 32 35 37 38
9 11 5 8 8 5 5 5 11 13 23 34 33 29 27 22 15 12 11 8 8 14 20 23 27 25 26 30 34 35 36 39 41 42 45 46 42 40 39 39 40 35 28 36 37 40 41 42 42
14 2 4 13 15 4 9 11 17 14 19 26 27 28 25 25 20 14 10 6 3 6 14 18 21 24 27 29 28 31 37 40 43 44 44 41 43 44 43 45 41 44 47 42 42 46 44 42 44
3 3 3 6 13 21 28 17 20 24 25 19 22 25 23 22 21 18 16 15 14 11 8 7 10 13 16 19 19 22 26 32 33 33 36 39 41 45 51 45 42 43 45 43 46 50 45 47 47
7 7 6 6 7 16 13 18 15 18 19 15 17 18 20 23 25 23 22 23 23 20 18 21 19 19 19 18 17 18 21 24 28 31 33 34 38 44 45 50 48 49 46 47 50 46 48 52 56
8 6 3 3 14 14 11 17 12 17 7 5 4 8 16 18 18 19 19 20 24 25 23 24 23 21 22 20 16 15 18 22 27 29 31 33 33 31 28 27 31 43 57 44 46 47 36 46 54
6 10 3 6 10 19 13 7 1 6 7 2 1 3 8 12 15 16 17 18 19 22 26 28 29 29 30 28 24 22 17 14 14 18 19 21 24 15 13 15 22 30 37 38 47 61 56 67 54
6 4 5 6 7 7 6 7 8 7 4 3 8 10 8 11 15 16 17 19 22 27 28 29 31 32 31 28 25 23 22 24 24 25 23 20 18 13 14 16 22 32 45 57 63 62 61 66 58
8 6 5 6 9 5 3 7 7 7 11 12 20 18 16 14 15 14 14 14 18 21 24 28 31 31 33 34 34 29 27 27 24 20 19 17 17 20 20 17 17 19 19 24 32 41 45 41 41
13 11 15 10 7 4 8 8 8 12 11 10 24 29 28 26 21 17 14 12 11 13 15 19 23 26 26 28 30 31 30 28 23 25 27 28 25 19 20 24 26 28 27 23 22 20 23 23 21
12 12 6 8 8 9 1 4 14 12 11 30 41 44 40 34 29 23 18 15 12 8 9 15 18 20 23 25 26 30 34 35 35 33 32 30 30 31 29 28 28 32 31 28 28 21 17 21 27
5 11 10 8 6 7 7 10 6 6 10 25 34 48 43 40 34 29 24 21 14 9 5 6 10 14 18 22 27 30 30 31 33 34 33 32 32 31 30 29 27 24 26 27 30 25 16 10 17
5 4 6 13 6 4 5 10 7 4 7 13 30 37 45 44 41 35 29 23 14 9 4 2 5 9 12 17 22 26 28 28 30 32 33 34 32 32 33 33 31 31 28 24 18 21 22 21 20
6 10 7 6 4 7 7 7 9 8 14 12 24 45 47 41 40 35 30 25 17 9 3 3 2 2 6 8 13 17 22 25 27 31 35 39 40 40 40 42 41 37 33 31 26 22 22 26 31
5 3 11 8 8 9 2 10 11 18 24 26 40 54 50 46 44 39 34 28 18 13 11 9 8 8 8 3 3 8 14 20 22 25 29 33 38 40 42 45 48 48 47 38 31 27 24 23 23
1 6 10 9 8 2 7 11 7 13 21 38 51 56 51 48 43 39 36 32 29 24 19 13 10 12 13 9 5 2 8 12 16 20 25 28 32 36 40 44 49 56 59 47 36 33 31 32 31
Wind_Direction_850mb
305 325 329 357 49 55 287 280 297 356 10 341 112 80 172 110 163 221 145 158 162 159 158 157 156 150 149 150 149 152 157 159 154 151 146 141 137 132 126 118 118 124 125 122 116 113 111 110 110
320 325 70 83 85 55 271 273 254 218 136 38 77 22 29 62 95 139 147 156 163 160 158 159 158 151 152 154 155 150 143 144 153 157 157 155 152 148 140 129 128 133 133 129 124 124 122 118 117
117 181 167 94 110 178 219 226 249 283 260 333 40 54 17 17 125 140 154 160 164 163 159 159 159 154 158 164 166 163 155 149 146 145 142 140 138 140 150 148 145 147 148 144 138 138 132 124 124
183 150 68 91 229 253 216 228 234 264 295 202 78 51 49 73 133 149 157 164 166 163 160 161 162 158 162 170 172 169 163 158 154 149 145 137 136 138 144 160 168 170 172 174 172 170 166 162 169
172 103 58 352 259 263 262 260 228 151 146 157 171 65 76 134 135 155 161 168 170 166 162 164 165 163 166 172 171 168 163 159 158 157 156 155 154 160 169 183 192 197 199 200 198 199 204 206 224
112 90 59 304 268 278 280 288 198 148 128 118 134 103 124 194 153 161 168 170 173 169 165 169 170 170 171 175 172 168 165 163 161 161 159 159 164 180 208 224 225 222 217 215 216 219 225 232 239
122 83 188 230 269 303 313 56 125 133 127 100 139 103 156 161 165 164 168 170 174 173 170 174 177 176 177 180 178 171 167 166 163 166 164 160 153 150 332 310 284 261 246 234 227 226 228 232 233
93 93 51 238 275 61 332 84 103 119 74 95 104 159 182 165 161 160 165 173 175 177 179 181 184 184 184 185 186 184 180 180 182 195 205 204 206 336 339 338 336 320 289 259 240 232 232 232 232
80 60 6 325 360 317 28 90 65 85 91 56 61 151 156 148 151 158 169 178 181 182 188 191 195 194 192 194 198 197 194 197 202 208 229 260 289 304 318 342 2 7 358 327 280 249 239 236 235
93 97 228 227 294 5 35 74 52 76 72 67 95 121 144 151 156 164 178 183 185 190 195 201 206 207 209 212 215 218 220 221 225 229 241 261 285 296 317 340 343 355 9 14 355 295 258 246 242
159 176 194 298 148 173 49 72 61 85 35 8 143 142 150 155 165 172 176 189 190 197 207 214 218 219 222 227 229 234 239 242 249 257 265 266 274 281 289 310 312 317 340 21 54 91 91 272 272
10 304 244 343 178 126 116 101 61 64 69 130 143 149 152 157 167 185 185 188 191 201 215 228 237 239 238 237 237 243 247 257 262 267 277 285 289 289 287 287 296 285 267 247 237 233 257 276 284
72 323 188 297 117 117 106 78 111 77 118 145 148 153 154 165 182 194 200 202 204 213 220 228 237 246 250 256 258 261 267 273 282 286 286 290 288 290 289 282 277 269 264 262 260 271 277 281 287
308 311 355 345 77 147 105 139 50 112 137 135 141 139 143 151 160 182 203 211 218 222 234 241 246 246 250 262 263 263 273 280 284 277 284 290 289 281 279 280 276 260 253 258 269 277 282 285 289
1 25 354 328 295 118 115 37 42 128 139 131 128 132 133 123 128 139 139 188 215 227 240 246 255 251 256 265 269 270 274 273 278 282 284 285 286 278 273 271 270 268 260 262 267 271 276 278 283
54 49 56 299 357 21 125 135 94 114 134 118 128 125 127 118 114 107 113 140 186 225 248 263 271 264 266 265 258 257 265 270 272 270 271 273 275 275 271 274 274 272 264 266 265 268 272 280 289
13 113 360 324 20 263 52 102 77 112 122 105 113 122 119 114 111 106 112 103 91 235 253 260 267 259 251 254 257 256 259 262 269 274 277 279 279 278 279 276 279 273 273 263 268 268 279 283 282
213 66 265 28 350 56 85 95 59 74 111 95 101 108 113 106 90 84 82 74 64 53 36 332 308 298 290 272 267 265 260 264 270 271 276 281 282 283 281 280 280 281 280 277 270 270 271 279 285
147 113 101 9 339 71 53 88 54 74 89 74 81 83 90 93 85 78 67 58 54 50 38 18 341 332 311 298 276 274 270 277 289 291 294 294 290 287 291 285 278 274 273 277 276 281 285 285 285
92 119 17 128 21 84 70 80 54 40 33 10 46 82 86 87 88 82 73 57 36 25 24 29 28 17 16 19 17 357 338 325 319 320 317 313 310 310 304 302 292 279 281 273 281 266 264 283 281
40 122 88 98 78 49 111 19 330 33 70 63 136 112 98 85 75 67 55 47 45 48 45 38 34 32 34 35 30 23 11 2 352 350 341 339 332 325 306 298 293 281 276 273 257 268 266 269 269
117 190 134 116 88 192 163 259 271 210 253 250 208 192 164 123 109 98 87 76 66 55 44 33 25 21 24 25 19 19 24 29 24 10 3 356 338 317 301 279 268 259 256 261 268 260 260 262 270
191 113 64 38 74 74 323 90 272 138 236 222 229 210 191 177 161 138 114 87 65 50 34 23 17 14 21 25 35 39 38 41 35 22 10 5 354 347 336 321 314 301 303 300 294 285 278 276 275
139 79 46 51 70 27 284 121 263 198 212 170 215 214 207 197 183 168 144 121 91 61 40 24 18 17 23 24 25 31 36 40 31 28 25 23 19 8 348 344 335 329 328 323 310 299 299 291 269
73 61 356 355 10 221 56 54 247 238 224 176 195 203 204 200 195 187 174 158 146 114 57 33 28 24 30 31 41 44 40 37 37 34 27 19 14 14 15 10 1 357 351 337 329 308 284 278 252
74 141 149 217 207 259 324 250 252 239 227 198 197 192 196 202 200 197 187 181 170 150 102 47 40 41 55 56 56 51 41 31 30 31 28 25 21 13 7 2 359 356 357 355 347 328 332 353 297
175 73 156 104 34 68 253 297 316 89 107 165 188 195 204 204 204 203 199 194 187 180 160 88 56 57 73 72 50 41 43 44 41 37 33 30 26 20 11 360 351 351 354 349 343 342 2 14 16
122 147 71 13 219 250 297 270 240 228 217 206 211 216 217 215 214 210 210 208 204 201 215 249 279 134 124 85 52 53 44 42 40 37 38 40 37 32 27 21 11 357 346 345 344 346 323 308 303
43 42 55 119 140 177 228 263 222 207 202 207 217 222 224 222 223 219 218 215 215 224 232 246 244 203 191 189 64 50 45 35 27 21 20 22 22 21 22 23 20 12 4 346 332 331 326 325 326
88 157 139 133 223 160 144 271 256 240 220 213 225 228 232 237 238 231 225 224 225 229 234 251 258 232 216 234 200 50 13 13 10 1 355 358 359 1 2 3 5 4 1 350 334 325 325 327 324